Location: Unspecified
(51.0950°N, 12.9690°E)
Time: 22:08:46
(UTC+00:00)

Cosmos 2322 Rocket - Pass Details

Date: 28 October 2021
Orbit: 832 x 851 km, 71.0° (Epoch: 01 December)

Event Time Altitude Azimuth Distance (km) Brightness Sun altitude
Rises 17:04:31 0° 207° (SSW) 3,366 5.8 -12.3°
Reaches altitude 10° 17:06:56 10° 207° (SSW) 2,436 5.1 -12.7°
Maximum altitude 17:12:31 89° 125° (SE) 842 2.2 -13.6°
Drops below altitude 10° 17:18:11 10° 30° (NNE) 2,460 4.3 -14.5°
Enters shadow 17:20:06 - 31° (NNE) 3,195 4.9 -14.8°
